sat.trackr.live / text

‹ back to catalog

STARLINK-31502

NORAD 59301 · 2024-056F

PAYLOAD ACTIVE UNKNOWN

§ Identity

Operator
Country
US
Launch date
2024-03-24
Launch site
AFETR
Launch vehicle
Mass (kg)
RCS (m²)

Purposes: comms

External: N2YO · Heavens-Above · Gunter

§ Orbital elements

Epoch: 2026-09-20T21:43:24.895200Z

Period
94.27 min
Inclination
43.0005°
Eccentricity
0.0001364
Mean motion
15.27573522 rev/d
Perigee alt
482.1 km
Apogee alt
484.0 km
Semi-major
6,861.2 km
B*
2.5034e-5
RAAN
200.9938°
Arg perigee
271.7711°
Mean anomaly
88.2985°
Rev number
14,109

§ Raw data

STARLINK-315021 59301U 24056F   26263.90514925  .00000427  00000+0  25034-4 0  99992 59301  43.0005 200.9938 0001364 271.7711  88.2985 15.27573522141097

JSON: /api/v1/satellites/59301 · /tle

For live sub-satellite position, see the globe view (requires WebGL).

§ Visibility from observer

Set your observer location to see the next 7 days of passes ≥ 10°. The values pass through the URL so the page stays shareable.

No JS? Fill the form by hand. The geolocation button needs JavaScript.